Location: Clarion
(42.7316°N, 93.7330°W)
Time: 09:21:55
(UTC+00:00)

Resurs 1-4 Rocket - Pass Details

Date: 22 April 2026
Orbit: 798 x 812 km, 98.8° (Epoch: 16 May)

Event Time Altitude Azimuth Distance (km) Brightness Sun altitude
Rises 07:48:21 0° 29° (NNE) 3,337 6.5 -30.9°
Reaches altitude 10° 07:51:22 10° 46° (NE) 2,398 5.4 -30.6°
Maximum altitude 07:55:08 20° 92° (E) 1,813 4.1 -30.3°
Enters shadow 07:56:28 18° 112° (ESE) 1,892 4.1 -30.2°
